Overview Statistics Trail Chart Weather Telemetry Raw packets
 

This is the latest recevied weather packets stored in our database for station/object N5DGC. If no packets are shown the sender has not sent any weather packets the latest 10 day(s).

<< 7 8 9 10 11 12 13 >>
Time Temp. Humidity Pressure Rain* Wind** Luminosity Snow
1788556464 31.67° C 33% 1238.2 hPa 0 mm - 454 W/m² -
1788556160 31.11° C 34% 1238.4 hPa 0 mm - 588 W/m² -
1788555858 30.56° C 34% 1238.1 hPa 0 mm - 430 W/m² -
1788555555 31.11° C 34% 1238.3 hPa 0 mm - 528 W/m² -
1788555250 30.56° C 35% 1238.4 hPa 0 mm - 729 W/m² -
1788554947 30.56° C 35% 1238.7 hPa 0 mm - 414 W/m² -
1788554643 30.56° C 36% 1238.7 hPa 0 mm - 542 W/m² -
1788554339 30° C 36% 1238.8 hPa 0 mm - 558 W/m² -
1788554035 30.56° C 36% 1238.7 hPa 0 mm - 538 W/m² -
1788553730 30° C 38% 1239 hPa 0 mm - 903 W/m² -
1788553426 29.44° C 38% 1238.7 hPa 0 mm - 747 W/m² -
1788553122 29.44° C 38% 1239 hPa 0 mm - 627 W/m² -
1788552822 28.89° C 39% 1238.9 hPa 0 mm - 470 W/m² -
1788552517 29.44° C 38% 1238.9 hPa 0 mm - 544 W/m² -
1788552216 29.44° C 38% 1239.1 hPa 0 mm - 425 W/m² -
1788551916 30° C 36% 1239.4 hPa 0 mm - 401 W/m² -
1788551614 30° C 36% 1239.5 hPa 0 mm - 412 W/m² -
1788551324 30° C 35% 1239.3 hPa 0 mm - 380 W/m² -
1788551008 30.56° C 34% 1239.3 hPa 0 mm - 332 W/m² -
1788550704 31.11° C 33% 1239.3 hPa 0 mm - 322 W/m² -
1788550399 31.11° C 32% 1239.5 hPa 0 mm - 360 W/m² -
1788550094 31.11° C 33% 1239.6 hPa 0 mm - 558 W/m² -
1788549789 30.56° C 34% 1239.7 hPa 0 mm - 711 W/m² -
1788549486 30.56° C 33% 1240 hPa 0 mm - 488 W/m² -
1788549182 31.11° C 34% 1239.8 hPa 0 mm - 409 W/m² -

* Rain latest hour (hover to see other rain measurements)
** Current wind speed in m/s (hover to see current wind gust speed)